Back to catalog

FENGYUN 1C DEB

AlivePO
NORAD 29972·DEBRIS·🇨🇳 China

Launched May 10, 1999 from Taiyuan Satellite Launch Center

Loading…

Next Passes (next 24 hours)

TLE

FreshSource: Space-Track

Epoch: Sep 14, 2026, 08:39 UTC

1 29972U 99025KW  26257.36065111  .00002842  00000-0  47821-3 0  9990
2 29972  98.9026 298.8247 0060311 237.3375 187.0640 14.69323265 35281

Track FENGYUN 1C DEB in real time with AllMySat

Download on the App Store